Regional Weather Roundup
Issued by NWS

Home | Current Version | Previous Version | Text Only | Print | Product List | Glossary Off
Versions: 1 2 3 4 5 6 7 8 9 10 11 12 13 14 15 16 17 18 19 20 21 22 23 24 25 26 27 28 29 30 31 32 33 34 35 36 37 38 39 40 41 42 43 44 45 46 47 48 49 50

000
ASUS45 KCYS 292310
RWRWY

WYOMING REGIONAL WEATHER ROUNDUP
NATIONAL WEATHER SERVICE CHEYENNE WY
500 PM MDT FRI AUG 29 2014

NOTE:  "FAIR" INDICATES FEW OR NO CLOUDS BELOW 12,000 FEET
WITH NO SIGNIFICANT WEATHER AND/OR OBSTRUCTIONS TO VISIBILITY.

WYZ001-300000-
YELLOWSTONE NATIONAL PARK

CITY           SKY/WX    TMP DP  RH WIND       PRES   REMARKS
LK YELLOWSTONE   N/A     67  37  33 SW8       30.22F
W YELLOWSTONE  NOT AVBL

$$
WYZ002>013-054>058-071-098>099-300000-
NORTHERN WYOMING

CITY           SKY/WX    TMP DP  RH WIND       PRES   REMARKS
JACKSON        NOT AVBL
CODY           MOSUNNY   79  46  31 E8        29.99F
GREYBULL       SUNNY     83  43  24 S6        29.93F
WORLAND        SUNNY     83  38  20 E10       29.95F
SHERIDAN       SUNNY     76  49  38 VRB3      30.00F
BUFFALO        SUNNY     75  46  35 E6        30.06F
GILLETTE       MOSUNNY   74  49  41 N7        30.03S
HULETT         FAIR      73  48  40 MISG      30.05
NEWCASTLE      FAIR      77  41  27 MISG      30.02

$$
WYZ014>020-022>026-101>103-300000-
CENTRAL WYOMING

CITY           SKY/WX    TMP DP  RH WIND       PRES   REMARKS
BIG PINEY      SUNNY     77  35  21 NW13      30.17F
PINEDALE       PTCLDY    73  34  23 NW12G18   30.18S
DUBOIS         MOCLDY    73  32  21 NW13G18   30.15S
LANDER         SUNNY     82  41  23 E7        30.01F
RIVERTON       SUNNY     79  38  22 SE7       30.03F
CASPER         MOSUNNY   81  35  19 W9        30.05S
DOUGLAS        SUNNY     80  44  27 N9        30.05F

$$
WYZ021-027>030-104>119-300000-
SOUTHERN WYOMING

CITY           SKY/WX    TMP DP  RH WIND       PRES   REMARKS
EVANSTON       MOSUNNY   73  39  29 W14       30.19F
KEMMERER       PTCLDY    73  37  27 W10       30.21F
FORT BRIDGER   FAIR      74  41  29 W10       30.22
ROCK SPRINGS   SUNNY     76  33  21 W12G22    30.15F
DIXON          FAIR      74  45  36 W7        30.19R
RAWLINS        SUNNY     76  33  21 W12       30.15F
SARATOGA       FAIR      70  41  35 NW9       30.18S
LARAMIE        PTSUNNY   65  45  48 S8        30.19R
CHEYENNE       PTSUNNY   71  46  40 NE8       30.12S THUNDER
TORRINGTON     SUNNY     80  48  32 NE9G17    30.01R
PINE BLUFFS    FAIR      73  46  38 NE6       30.08S

$$



USA.gov is the U.S. government's official web portal to all federal, state and local government web resources and services.